Location: Desingerode
(51.5265°N, 10.1825°E)
Time: 01:45:26
(UTC+00:00)

Daily predictions for brighter satellites

Satellite Brightness Start Highest point End
(mag) Time Altitude Azimuth Time Altitude Azimuth Time Altitude Azimuth
CENTAUR R/B 4.3 02:10:28 35° NE 02:10:28 35° NE 02:16:19 10° E
Lacrosse 5 rocket 4.4 03:08:33 15° ENE 03:08:33 15° ENE 03:09:22 10° ENE
Cosmos 2263 Rocket 3.7 03:18:49 31° NE 03:19:06 32° NE 03:24:07 10° ESE
CZ-2C R/B 4.2 03:25:32 10° NNE 03:27:49 26° NE 03:27:49 26° NE
NOSS 3-2 (C) 4.0 03:31:22 65° N 03:32:14 70° NE 03:40:26 10° SE
ATLAS 3B R/B 3.3 03:36:59 45° N 03:38:03 49° NNE 03:44:39 10° ESE
NOSS 3-1 (A) 4.4 03:48:13 39° N 03:48:13 39° N 03:53:56 10° NE
Cosmos 2369 3.9 03:52:45 71° E 03:52:45 71° E 03:58:17 10° NNE
NOSS 3-2 (A) 3.8 03:52:25 74° W 03:53:04 79° SW 04:01:22 10° SE
USA 215 3.0 03:50:08 10° ESE 03:56:42 85° SSW 03:57:09 79° W
CENTAUR R/B 3.1 03:57:40 46° NW 04:00:27 77° NE 04:09:08 10° SE
Okean O Rocket 4.4 04:01:29 10° NE 04:04:38 19° E 04:07:44 10° SE
Cosmos 1980 Rocket 2.8 04:05:29 26° S 04:08:28 54° ESE 04:13:59 10° NE
Cosmos 2154 Rocket 3.8 04:04:57 10° NNW 04:11:10 80° W 04:17:22 10° S
Cosmos 1825 Rocket 4.1 04:13:30 56° ESE 04:13:30 56° ESE 04:17:23 10° SSE
Cosmos 1697 Rocket 2.5 04:15:14 83° WSW 04:15:24 84° WNW 04:21:04 10° NNE
Cosmos 2369 Rocket 4.4 04:19:20 12° N 04:19:20 12° N 04:21:01 10° N
SL-4 R/B 4.4 04:22:06 12° SSE 04:22:06 12° SSE 04:22:31 10° SSE
Cosmos 1610 Rocket 4.4 04:17:50 10° NNW 04:24:00 63° W 04:30:14 10° S
ATLAS 2AS CENTAUR R/B 3.9 04:16:50 10° S 04:24:22 48° ESE 04:31:56 10° NE
ALOS 3.1 04:20:16 10° NNE 04:24:49 49° E 04:29:20 10° S
Cosmos 1295 Rocket 4.3 04:19:55 10° NNW 04:26:10 80° W 04:32:17 10° S
Genesis I 3.7 04:28:12 56° E 04:28:12 56° E 04:31:26 10° SE
USA 238 DEB 4.0 04:29:55 48° WSW 04:30:42 49° WSW 04:37:45 10° SSE
USA 238 4.0 04:30:00 48° WSW 04:30:49 50° WSW 04:37:52 10° SSE
CZ-4B R/B 3.8 04:28:04 10° NNE 04:30:59 40° N 04:30:59 40° N
Cosmos 2227 4.0 04:31:35 50° NW 04:33:08 80° WSW 04:38:45 10° SSE
Cosmos 1606 Rocket 4.1 04:31:06 10° S 04:35:27 57° E 04:39:48 10° NNE
COSMO-SKYMED 1 3.0 04:32:26 10° S 04:35:40 48° S 04:35:40 48° S
STARLINK-55 4.4 04:37:13 36° SSE 04:37:17 36° SSE 04:40:36 10° E
Cosmos 1703 3.9 04:35:28 26° N 04:37:28 55° ENE 04:41:20 10° SSE
STARLINK-28 4.3 04:39:14 39° SSE 04:39:17 39° SSE 04:42:37 10° E
Meteor 1-21 Rocket 4.2 04:36:33 19° NNW 04:40:53 65° W 04:46:44 10° S
Cosmos 962 Rocket 4.4 04:36:21 10° NNW 04:42:37 74° W 04:48:55 10° S
STARLINK-80 3.4 04:43:57 75° NE 04:43:57 75° NE 04:47:31 10° ENE
Cosmos 773 Rocket 4.0 04:43:58 54° W 04:44:29 57° WNW 04:49:43 10° NNE
Lacrosse 5 rocket 2.2 04:44:11 40° NNW 04:44:34 41° N 04:48:51 10° ENE
Cosmos 2278 Rocket 4.5 04:41:27 10° N 04:44:50 16° NNE 04:48:11 10° ENE
NOSS 2-2 (D) 3.1 04:48:16 75° NW 04:48:16 75° NW 04:52:37 10° NE
Cosmos 1624 Rocket 4.4 04:45:53 17° NNW 04:49:57 62° ENE 04:55:05 10° SE
CZ-4B DEB 4.5 04:45:36 10° NNE 04:51:10 70° ESE 04:56:41 10° S
STARLINK-58 4.4 04:54:10 31° SSW 04:55:36 46° SSE 04:59:28 10° ENE
Cosmos 2228 3.1 04:51:40 10° S 04:56:04 82° E 05:00:29 10° NNE
COSMOS 2455 2.8 04:51:25 16° SW 04:56:24 89° SE 05:02:28 10° NE
STARLINK-62 4.3 04:55:51 32° SSW 04:57:18 48° SSE 05:01:12 10° ENE
Cosmos 2322 Rocket 3.7 04:53:31 10° S 04:58:41 38° ESE 05:03:53 10° NE
Cosmos 1656 4.4 05:00:18 30° NW 05:00:21 30° NW 05:05:12 10° NNE
STARLINK-48 3.3 05:00:06 64° W 05:00:40 85° NNW 05:04:34 10° ENE
Cosmos 1953 2.7 05:02:56 44° NW 05:02:56 44° NW 05:06:14 10° N
METEOR-M 4.0 04:58:02 10° NNE 05:03:26 86° WNW 05:08:47 10° SSW
Cosmos 2263 Rocket 2.2 05:00:32 29° NW 05:03:27 63° WSW 05:09:02 10° SSE
Cosmos 2056 Rocket 3.7 05:00:19 14° NNW 05:05:05 78° ENE 05:10:32 10° SSE
STARLINK-60 3.1 05:06:16 59° SW 05:06:25 60° SSW 05:09:44 10° ESE
STARLINK-42 4.0 05:05:33 31° SSW 05:06:59 52° SSE 05:10:39 10° ENE
PSLV R/B 3.7 05:03:19 10° N 05:07:04 55° WNW 05:07:52 44° WSW
Orbus 7S? 3.8 05:07:24 38° SW 05:07:52 40° SW 05:13:10 10° SSE
CZ-2C R/B 3.6 05:04:15 10° N 05:07:13 25° NW 05:07:13 25° NW
SL-8 Rocket 3.9 05:05:37 10° NNW 05:11:47 67° W 05:17:53 10° S
Cosmos 923 Rocket 4.0 05:07:37 10° SSW 05:12:54 88° WNW 05:18:15 10° NNE
STARLINK-64 3.9 05:11:17 28° SW 05:13:01 55° SSE 05:16:45 10° ENE
Cosmos 2360 4.4 05:10:41 24° WSW 05:14:00 51° NW 05:19:37 10° NNE
Cosmos 2181 Rocket 3.9 05:08:06 10° SSW 05:14:20 82° WNW 05:20:43 10° N
Cosmos 2344 3.7 05:09:57 21° WSW 05:15:20 65° NW 05:24:07 10° NE
Cosmos 1844 Rocket 3.5 05:10:51 10° NNW 05:16:18 48° NE 05:21:46 10° SE
Cosmos 2341 Rocket 4.2 05:12:36 10° NNW 05:18:33 46° W 05:24:25 10° SSW
STARLINK-34 3.9 05:16:26 24° SW 05:18:40 60° SSE 05:22:39 10° ENE
STARLINK-24 3.9 05:18:01 23° SW 05:20:19 61° SSE 05:24:19 10° ENE
Meteor 2-10 4.0 05:14:53 10° SSW 05:20:23 71° WNW 05:25:42 10° N
Cosmos 1953 Rocket 3.8 05:18:42 19° NNW 05:21:37 44° W 05:25:47 10° SSW
STARLINK-81 4.0 05:19:20 21° SW 05:21:48 59° SSE 05:25:47 10° ENE
SMAP 4.4 05:18:34 10° NNE 05:23:01 43° E 05:27:27 10° S
NOSS 3-2 (C) 4.5 05:18:50 23° WNW 05:23:06 42° WSW 05:30:47 10° S
STARLINK-54 3.9 05:21:11 22° SW 05:23:38 64° SSE 05:27:37 10° ENE
USA 116 4.4 05:20:34 10° S 05:24:54 40° W 05:27:07 23° NW
STARLINK-77 3.9 05:22:31 21° SW 05:25:06 62° SSE 05:29:05 10° ENE
STARLINK-25 3.9 05:24:08 20° SW 05:26:47 63° SSE 05:30:46 10° ENE
NOSS 2-2 (C) 3.8 05:25:57 32° WNW 05:27:10 42° NNW 05:31:29 10° NE
Cosmos 2278 4.2 05:24:06 22° WSW 05:27:18 40° NW 05:32:41 10° NNE
STARLINK-71 3.8 05:26:00 21° SW 05:28:37 67° SSE 05:32:37 10° ENE
ATLAS 3B R/B 2.8 05:24:15 20° NW 05:28:57 58° SW 05:35:41 10° SSE
STARLINK-79 3.8 05:27:15 19° SW 05:30:01 65° SSE 05:34:02 10° ENE
RESURS DK-1 4.4 05:26:28 10° S 05:30:08 32° ESE 05:33:51 10° NE
USA 32 4.4 05:25:20 10° NNW 05:30:15 42° W 05:35:09 10° SSW
STARLINK-78 3.8 05:28:55 19° SW 05:31:43 67° SSE 05:35:44 10° ENE
Cosmos 1726 2.5 05:28:41 10° SW 05:32:07 38° WNW 05:35:35 10° N
STARLINK-57 3.7 05:30:39 18° WSW 05:33:29 69° SSE 05:37:30 10° ENE
MOS 1-B 4.4 05:28:43 10° N 05:34:23 57° WNW 05:40:02 10° SW
Cosmos 1328 4.3 05:32:34 19° NW 05:34:49 36° W 05:38:28 10° SSW
STARLINK-49 3.8 05:32:03 18° WSW 05:35:00 69° SSE 05:39:01 10° ENE
STARLINK-27 3.7 05:33:39 17° WSW 05:36:40 70° SSE 05:40:41 10° ENE
NOSS 2-2 (E) 4.2 05:35:47 25° WNW 05:37:20 34° NNW 05:41:41 10° NE
Cosmos 1943 Rocket 4.4 05:37:00 10° N 05:38:06 11° N 05:39:13 10° NNE
STARLINK-74 3.7 05:35:15 17° WSW 05:38:19 71° SSE 05:42:21 10° ENE
SL-16 R/B 2.3 05:32:55 10° SSW 05:38:36 80° ESE 05:44:18 10° NNE
NOSS 3-4 (A) 3.5 05:33:51 10° SW 05:39:54 84° SE 05:46:24 10° NE
STARLINK-39 3.7 05:36:50 16° WSW 05:39:58 72° SSE 05:44:00 10° ENE
NOSS 3-4 (C) 3.5 05:33:58 10° SW 05:40:00 83° SE 05:46:30 10° NE
USA 215 4.0 05:34:27 10° SSE 05:40:16 34° SW 05:44:30 17° WNW
FENGYUN 3A 3.9 05:35:56 10° N 05:41:05 46° WNW 05:46:13 10° SW
Okean O Rocket 1.6 05:36:58 10° N 05:41:24 62° WNW 05:45:46 10° SSW
STARLINK 3.7 05:38:28 16° WSW 05:41:39 73° SSE 05:45:41 10° ENE
FALCON 9 DEB 3.5 05:40:35 25° W 05:42:19 53° SSW 05:45:45 10° SE
STARLINK-69 3.6 05:40:18 16° WSW 05:43:28 77° SSE 05:47:30 10° ENE
H-2A R/B 2.9 05:39:43 10° NNE 05:43:40 78° ESE 05:47:33 10° S
Cosmos 1821 Rocket 4.2 05:38:25 10° N 05:44:39 77° ENE 05:50:46 10° SSE
STARLINK-21 3.6 05:41:41 15° WSW 05:44:59 76° SSE 05:49:01 10° ENE
CZ-4B R/B 3.2 05:40:16 10° NNE 05:45:50 70° WNW 05:51:16 10° SSW
Cosmos 2360 Rocket 3.5 05:40:47 10° S 05:46:08 45° ESE 05:51:31 10° NE
STARLINK-43 3.3 05:44:11 23° WNW 05:46:23 73° N 05:50:06 10° E
STARLINK-45 3.6 05:43:35 15° WSW 05:46:52 81° SSE 05:50:54 10° ENE
STARLINK-26 3.1 05:44:58 22° W 05:47:05 75° N 05:50:35 10° ENE
Cosmos 1452 Rocket 3.8 05:42:20 10° NNW 05:47:37 68° ENE 05:52:51 10° SSE
BREEZE M DEB (TANK) 3.8 05:45:10 11° SW 05:47:49 52° SSE 05:54:42 10° E
BREEZE M DEB (TANK) 4.1 05:36:22 16° W 05:47:53 63° SSW 05:52:06 10° SE
Cosmos 2218 Rocket 4.3 05:41:55 10° NNW 05:47:58 45° W 05:53:57 10° SSW
STARLINK-70 3.6 05:45:01 14° WSW 05:48:23 80° SSE 05:52:25 10° ENE
Nadezhda 3 Rocket 4.4 05:42:21 10° S 05:48:26 66° E 05:54:35 10° NNE
ADEOS Rocket 2.8 05:43:39 10° S 05:49:02 59° W 05:54:46 10° NNW
STARLINK-76 3.6 05:46:26 13° WSW 05:49:56 79° SSE 05:53:58 10° ENE
Cosmos 1844 4.0 05:45:01 10° NNW 05:50:36 66° NE 05:56:08 10° SE
STARLINK-61 3.4 05:47:41 17° WSW 05:50:39 84° NNW 05:54:37 10° ENE
Envisat 4.1 05:45:51 10° NNE 05:50:48 49° E 05:55:44 10° S
CENTAUR R/B 3.7 05:44:51 15° WNW 05:50:58 39° WSW 05:58:47 10° S
STARLINK 3.6 05:48:02 13° WSW 05:51:36 80° SSE 05:55:38 10° ENE
STARLINK-75 3.4 05:48:30 15° WSW 05:51:39 86° SSE 05:55:29 10° ENE
Abrixas rocket 4.5 05:51:10 10° SW 05:52:02 11° SW 05:52:54 10° SSW
Cosmos 1300 3.0 05:48:37 10° S 05:52:25 71° E 05:56:14 10° NNE
Cosmos 1980 Rocket 2.8 05:47:31 10° WSW 05:52:44 36° NW 05:57:57 10° NNE
STARLINK-32 3.6 05:49:38 13° WSW 05:53:14 82° SSE 05:57:17 10° ENE
CZ-2C R/B 4.2 05:50:01 10° SE 05:54:47 35° ENE 05:59:41 10° N
STARLINK-40 3.6 05:51:14 12° WSW 05:54:55 83° SSE 05:58:58 10° ENE
STARLINK-44 3.6 05:52:48 12° WSW 05:56:32 84° SSE 06:00:35 10° ENE
PAYLOAD B 4.5 05:51:11 10° N 05:56:33 47° WNW 06:01:52 10° SW
STARLINK-37 3.5 05:54:34 12° WSW 05:58:19 86° SSE 06:02:23 10° ENE
Alouette 2 Rocket 3.9 05:54:08 10° S 05:58:28 61° ESE 06:02:01 10° NNE
Cosmos 2058 Rocket 3.4 05:54:37 10° SW 05:58:48 42° WNW 06:03:00 10° N
STARLINK-41 3.4 05:55:33 12° WSW 05:59:05 86° SSE 06:02:56 10° ENE
NOAA 6 4.2 05:54:21 10° N 05:59:21 49° WNW 06:04:20 10° SW
STARLINK-36 3.6 05:55:59 11° WSW 05:59:52 86° SSE 06:03:54 10° ENE
Cosmos 1697 Rocket 3.9 05:57:00 15° W 06:00:12 23° NW 06:04:39 10° NNE
Cosmos 1908 3.8 05:56:56 10° SW 06:00:32 34° WNW 06:04:10 10° N
Cosmos 371 Rocket 4.4 05:55:56 10° NNW 06:00:36 43° ENE 06:05:13 10° SE
Cosmos 158 Rocket 3.8 05:55:50 10° SSW 06:00:42 72° WNW 06:05:41 10° NNE
STARLINK-68 3.5 05:57:50 11° WSW 06:01:42 89° SE 06:05:44 10° ENE
STARLINK-29 3.8 05:59:12 17° W 06:01:43 46° SSW 06:05:07 10° SE
Cosmos 1680 Rocket 3.7 05:56:38 10° SW 06:01:49 51° WNW 06:07:01 10° NNE
ALOS 3.2 05:58:08 10° N 06:02:01 26° WNW 06:05:52 10° WSW
Cosmos 2058 3.1 05:58:12 10° N 06:02:27 78° E 06:06:39 10° SSE
STARLINK-52 3.7 06:00:07 16° W 06:02:40 49° SSW 06:06:04 10° SE
STARLINK-63 3.5 05:59:19 11° WSW 06:03:16 89° SE 06:07:18 10° ENE
STARLINK-35 3.5 06:00:46 10° WSW 06:04:48 89° S 06:08:51 10° ENE
STARLINK 3.4 06:01:30 10° WSW 06:05:19 87° SSE 06:09:09 10° ENE
Cosmos 2369 Rocket 4.4 06:03:53 10° N 06:05:53 12° NNE 06:07:53 10° NE
STARLINK-51 3.5 06:02:25 10° WSW 06:06:28 90° SSE 06:10:30 10° ENE
STARLINK-30 3.5 06:04:03 10° WSW 06:08:06 89° N 06:12:09 10° ENE
STARLINK-33 3.2 06:05:57 10° WSW 06:09:29 84° NNW 06:13:06 10° ENE
STARLINK-72 3.5 06:05:44 10° WSW 06:09:46 88° NNW 06:13:49 10° ENE
STARLINK-50 3.5 06:07:21 10° WSW 06:11:24 88° NNW 06:15:27 10° ENE
STARLINK 1031 4.5 06:08:19 10° SW 06:11:45 42° SSE 06:15:11 10° ENE
STARLINK-66 3.2 06:08:28 10° WSW 06:12:04 82° NNW 06:15:41 10° ENE
STARLINK-59 3.5 06:09:08 10° WSW 06:13:10 86° NNW 06:17:13 10° ENE
Lacrosse 5 2.5 06:08:18 10° SW 06:13:18 59° SE 06:18:18 10° ENE
CZ-2C R/B 3.7 06:09:56 10° S 06:14:30 70° WSW 06:19:01 10° NNW
STARLINK-55 3.2 06:10:58 10° W 06:14:33 80° N 06:18:08 10° ENE
STARLINK-56 3.5 06:10:42 10° WSW 06:14:44 86° NNW 06:18:47 10° ENE
Helios 1A Rocket 3.5 06:10:58 10° N 06:14:47 37° WNW 06:18:35 10° SW
STARLINK 1024 4.4 06:11:30 10° SW 06:14:57 44° SSE 06:18:26 10° ENE
CORIOLIS 4.2 06:09:40 10° NNE 06:15:03 90° NW 06:20:26 10° SSW
ATLAS 2AS CENTAUR R/B 3.1 06:07:21 10° WSW 06:15:20 65° NW 06:23:12 10° NE
In-Cosmos 22 Rocket 4.1 06:10:52 10° NNW 06:16:17 83° W 06:21:36 10° S
Starlink (trailer) 3.5 06:12:20 10° WSW 06:16:22 85° NNW 06:20:26 10° ENE
STARLINK-28 3.2 06:12:57 10° W 06:16:31 78° N 06:20:05 10° ENE
Iridium 96 3.4 06:14:10 10° S 06:16:41 79° W 06:19:05 10° N
Cosmos 1420 Rocket 4.2 06:11:56 10° NNW 06:17:09 59° WSW 06:22:21 10° S
STARLINK-38 3.5 06:14:00 10° WSW 06:18:03 84° NNW 06:22:06 10° ENE
Cosmos 2112 Rocket 4.4 06:14:07 10° SW 06:19:14 44° WNW 06:24:23 10° NNE
STARLINK-65 3.5 06:15:39 10° WSW 06:19:42 84° NNW 06:23:45 10° ENE
STARLINK 1032 4.3 06:16:57 10° SW 06:20:26 47° SSE 06:23:56 10° ENE
STARLINK-53 3.5 06:17:25 10° W 06:21:28 82° NNW 06:25:30 10° ENE
STARLINK-80 3.4 06:18:26 10° WNW 06:22:11 73° N 06:25:59 10° E
Cosmos 1892 2.8 06:19:04 10° N 06:22:56 84° ENE 06:26:45 10° SSE
STARLINK 1011 4.2 06:20:09 10° SW 06:23:40 49° SSE 06:27:12 10° ENE
Lacrosse 5 rocket 1.9 06:19:52 10° WNW 06:24:24 58° NNE 06:28:43 10° E
Cosmos 1934 Rocket 4.0 06:18:18 10° N 06:24:26 88° W 06:30:37 10° S
STARLINK 1036 4.2 06:22:45 10° SW 06:26:16 51° SSE 06:29:48 10° ENE
Cosmos 1340 Rocket 2.7 06:22:30 10° SSW 06:26:26 88° WNW 06:30:22 10° NNE
STARLINK 1035 4.0 06:23:34 10° SW 06:26:53 52° SSE 06:30:13 10° ENE
YAOGAN 1 4.2 06:23:43 10° NNE 06:27:51 40° E 06:31:56 10° SSE
Feng Yun 1-1 Rocket 4.4 06:23:31 10° NNE 06:29:28 74° WNW 06:35:18 10° SSW
Cosmos 1076 Rocket 3.8 06:25:17 10° NNW 06:29:32 50° W 06:33:45 10° S
STARLINK 1027 3.8 06:26:32 10° SW 06:29:54 56° SSE 06:33:16 10° ENE
Cosmos 2278 Rocket 3.1 06:24:58 10° NNW 06:30:26 46° NE 06:35:52 10° ESE
Cosmos 1437 3.6 06:28:08 10° NNW 06:30:48 28° W 06:33:27 10° SSW
STARLINK 1047 4.0 06:28:56 10° SW 06:32:29 56° SSE 06:36:04 10° ENE
YAOGAN 6 2.5 06:29:10 10° N 06:32:44 76° WNW 06:36:15 10° SSW
STARLINK 1037 4.0 06:29:40 10° SW 06:33:13 56° SSE 06:36:48 10° ENE
STARLINK-58 3.5 06:30:36 10° W 06:34:38 77° N 06:38:41 10° ENE
